This demonstration page uses our WeatherBlox Daily Observations layout. Learn more.

39.92423, -83.80882

Hourly Observations for May 17, 2017

Temp ( °F °C ) Dew Point ( °F °C ) Humidity (%) Winds ( mph kmh ) Pressure ( in mb ) Visibility ( mi km ) Precip ( " mm )
12:56 am 00:56 Clear 72 22.2 60 15.6 66 66 SSW 9 15 29.88 1012 10 16.0934 0 0
1:56 am 01:56 Clear 70 21.1 60 15.6 71 71 SW 12 19 29.88 1012 10 16.0934 0 0
2:56 am 02:56 Clear 70 21.1 59 15 68 68 SSW 10 17 29.88 1012 10 16.0934 0 0
3:56 am 03:56 Clear 68 20 59 15 73 73 SSW 6 9 29.89 1012 10 16.0934 0 0
4:56 am 04:56 Clear 67 19.4 59 15 76 76 SSW 6 9 29.91 1013 10 16.0934 0 0
5:56 am 05:56 Clear 67 19.4 59 15 76 76 SSW 6 9 29.91 1013 10 16.0934 0 0
6:56 am 06:56 Partly Cloudy 68 20 59 15 73 73 SSW 5 7 29.94 1014 10 16.0934 0 0
7:56 am 07:56 Cloudy 70 21.1 60 15.6 71 71 SSW 6 9 29.96 1015 10 16.0934 0 0
8:56 am 08:56 Cloudy 74 23.3 60 15.6 62 62 SSW 10 17 29.96 1015 10 16.0934 0 0
9:56 am 09:56 Cloudy 77 25 60 15.6 56 56 SW 14 22 29.97 1015 10 16.0934 0 0
10:56 am 10:56 Mostly Cloudy 80 26.7 61 16.1 52 52 WSW 17 28 29.97 1015 10 16.0934 0 0
11:56 am 11:56 Sunny 83 28.3 61 16.1 48 48 SW 16 26 29.96 1015 10 16.0934 0 0
12:56 pm 12:56 Mostly Cloudy 84 28.9 60 15.6 44 44 SSW 21 33 29.93 1014 10 16.0934 0 0
1:56 pm 13:56 Mostly Sunny 84 28.9 59 15 43 43 SSW 16 26 29.92 1013 10 16.0934 0 0
2:56 pm 14:56 Mostly Sunny 85 29.4 59 15 42 42 SSW 20 31 29.9 1013 10 16.0934 0 0
3:56 pm 15:56 Sunny 84 28.9 59 15 43 43 SSW 13 20 29.9 1013 10 16.0934 0 0
4:56 pm 16:56 Sunny 83 28.3 58 14.4 43 43 SSW 18 30 29.89 1012 10 16.0934 0 0
5:56 pm 17:56 Mostly Sunny 83 28.3 59 15 44 44 SSW 15 24 29.88 1012 10 16.0934 0 0
6:56 pm 18:56 Sunny 82 27.8 59 15 46 46 SW 20 31 29.86 1011 10 16.0934 0 0
7:56 pm 19:56 Sunny 80 26.7 60 15.6 51 51 SSW 12 19 29.87 1012 10 16.0934 0 0
8:56 pm 20:56 Clear 78 25.6 61 16.1 56 56 S 10 17 29.85 1011 10 16.0934 0 0
9:56 pm 21:56 Clear 75 23.9 61 16.1 62 62 S 8 13 29.88 1012 10 16.0934 0 0
10:56 pm 22:56 Clear 74 23.3 62 16.7 67 67 S 9 15 29.88 1012 10 16.0934 0 0
11:56 pm 23:56 Clear 75 23.9 61 16.1 62 62 S 10 17 29.87 1011 10 16.0934 0 0

Powered by AerisWeather